Погода в Гейнсвилле

США     29°39′06″N   82°19′30″W
темп.,
°C
ветер,
м/с
пор.,
м/с
влажн.,
%
обл.,
%
осадки,
мм/ч
давл.,
гПа
погр.,
м
21 октября, чт
чт2123:00+20в2774100 0.0 1023192
02:00+19вюв2576100 0.0 1021146
05:00+19в1281100 0.0 102142
08:00+19в118299 0.0 102226
11:00+26вюв225358 0.0 10221143
14:00+30юв213773 0.0 10201872
17:00+29юв113783 0.0 10181988
20:00+23вюв115834 0.0 101928
22 октября, пт
пт2223:00+21ююв267724 0.0 1019154
02:00+21ю127822 0.0 101838
05:00+20ю11825 0.0 101718
08:00+19ю118624 0.0 101820
11:00+27ююз225575 0.0 1018781
14:00+31юз224162 0.0 10161933
17:00+28зсз235087 0.1 1014426
20:00+25зюз125977 0.1 101636
23 октября, сб
сб2323:00+23з136543 0.0 101685
02:00+22зюз117038 0.0 101616
05:00+21зсз117630 0.0 101640
08:00+20с12855 0.0 101751
11:00+27ссв23530 0.0 1018751
14:00+31ссв21385 0.0 10162081
17:00+30ссв223526 0.0 10151791
20:00+24в376129 0.0 1016274
24 октября, вс
вс2423:00+21всв26830 0.0 1018167
02:00+20всв24920 0.0 1018104
05:00+20всв23971 0.0 101886
08:00+20всв249713 0.0 1018113
11:00+27в345727 0.0 10201132
14:00+31в2335100 0.0 10182098
17:00+29в3345100 0.0 10161432
20:00+24в387098 0.0 1018467
25 октября, пн
пн2523:00+22в2985100 0.0 1019328
02:00+21вюв1492100 0.0 1019110
05:00+21вюв129498 0.0 101853
08:00+20вюв129349 0.0 101951
11:00+28вюв2256100 0.0 1019855
14:00+32в1140100 0.0 10161739
17:00+30св1142100 0.0 10151803
20:00+24в266694 0.0 1016160